• In France
  • List of Countries
  • For 7 days
  • Water Temperature
  • Satellite Maps
  • Weather Map
  • Weather Widgets
  • user-avatar
    Login

    Hourly Weather Golden Sands

    Today, 25 September, Monday

    Time Temperature Precipitation Wind Pressure Humidity
    00:00 +18°C° 0 mm 2 mps 764 mmHg 69%
    01:00 +18°C° 0 mm 2 mps 764 mmHg 71%
    02:00 +18°C° 0 mm 2 mps 764 mmHg 75%
    03:00 +18°C° 0 mm 2 mps 764 mmHg 75%
    04:00 +18°C° 0 mm 3 mps 764 mmHg 75%
    05:00 +18°C° 0 mm 3 mps 764 mmHg 75%
    06:00 +19°C° 0 mm 4 mps 764 mmHg 71%
    07:00 +20°C° 0 mm 4 mps 764 mmHg 66%
    08:00 +21°C° 0 mm 5 mps 764 mmHg 60%
    09:00 +22°C° 0 mm 6 mps 764 mmHg 56%
    10:00 +23°C° 0 mm 7 mps 764 mmHg 52%
    11:00 +24°C° 0 mm 7 mps 764 mmHg 48%
    12:00 +24°C° 0 mm 7 mps 764 mmHg 50%
    13:00 +24°C° 0 mm 8 mps 764 mmHg 51%
    14:00 +24°C° 0 mm 8 mps 764 mmHg 52%
    15:00 +23°C° 0 mm 8 mps 763 mmHg 56%
    16:00 +23°C° 0 mm 8 mps 763 mmHg 60%
    17:00 +22°C° 0 mm 8 mps 763 mmHg 64%
    18:00 +22°C° 0 mm 8 mps 763 mmHg 68%
    19:00 +21°C° 0 mm 7 mps 763 mmHg 73%
    20:00 +21°C° 0 mm 7 mps 763 mmHg 77%
    21:00 +20°C° 0 mm 7 mps 763 mmHg 78%
    22:00 +20°C° 0 mm 6 mps 763 mmHg 80%
    23:00 +20°C° 0 mm 6 mps 763 mmHg 81%

    Tomorrow, 26 September, Tuesday

    Time Temperature Precipitation Wind Pressure Humidity
    00:00 +19°C° 0 mm 6 mps 762 mmHg 82%
    01:00 +19°C° 0 mm 6 mps 762 mmHg 84%
    02:00 +19°C° 0 mm 5 mps 762 mmHg 85%
    03:00 +19°C° 0 mm 6 mps 762 mmHg 85%
    04:00 +19°C° 0 mm 6 mps 761 mmHg 85%
    05:00 +20°C° 0 mm 6 mps 761 mmHg 86%
    06:00 +20°C° 0 mm 6 mps 761 mmHg 81%
    07:00 +21°C° 0 mm 6 mps 761 mmHg 77%
    08:00 +22°C° 0 mm 7 mps 762 mmHg 73%
    09:00 +23°C° 0.2 mm 7 mps 762 mmHg 69%
    10:00 +24°C° 0.2 mm 8 mps 762 mmHg 66%
    11:00 +24°C° 0.2 mm 9 mps 762 mmHg 62%
    12:00 +24°C° 0.3 mm 9 mps 762 mmHg 62%
    13:00 +24°C° 0.3 mm 9 mps 762 mmHg 62%
    14:00 +24°C° 0.3 mm 9 mps 762 mmHg 61%
    15:00 +23°C° 0.1 mm 9 mps 762 mmHg 62%
    16:00 +22°C° 0.1 mm 8 mps 762 mmHg 63%
    17:00 +22°C° 0.1 mm 8 mps 762 mmHg 64%
    18:00 +21°C° 0 mm 8 mps 763 mmHg 65%
    19:00 +21°C° 0 mm 8 mps 763 mmHg 66%
    20:00 +20°C° 0 mm 8 mps 763 mmHg 67%
    21:00 +20°C° 0 mm 8 mps 763 mmHg 67%
    22:00 +20°C° 0 mm 8 mps 763 mmHg 68%
    23:00 +20°C° 0 mm 7 mps 764 mmHg 68%

    Day after tomorrow, 27 September, Wednesday

    Time Temperature Precipitation Wind Pressure Humidity
    00:00 +18°C° 0 mm 7 mps 764 mmHg 69%
    01:00 +18°C° 0 mm 8 mps 764 mmHg 70%
    02:00 +18°C° 0 mm 8 mps 764 mmHg 71%
    03:00 +18°C° 0 mm 8 mps 764 mmHg 71%
    04:00 +17°C° 0 mm 8 mps 764 mmHg 72%
    05:00 +17°C° 0 mm 8 mps 764 mmHg 72%
    06:00 +18°C° 0 mm 8 mps 764 mmHg 69%
    07:00 +18°C° 0 mm 9 mps 765 mmHg 67%
    08:00 +19°C° 0 mm 9 mps 765 mmHg 65%
    09:00 +19°C° 0.1 mm 9 mps 766 mmHg 64%
    10:00 +19°C° 0.1 mm 10 mps 766 mmHg 63%
    11:00 +19°C° 0.1 mm 10 mps 766 mmHg 63%
    12:00 +19°C° 0.1 mm 10 mps 767 mmHg 62%
    13:00 +19°C° 0.1 mm 10 mps 767 mmHg 62%
    14:00 +19°C° 0.1 mm 10 mps 767 mmHg 62%
    15:00 +18°C° 0 mm 10 mps 767 mmHg 63%
    16:00 +18°C° 0 mm 10 mps 767 mmHg 64%
    17:00 +17°C° 0 mm 10 mps 767 mmHg 65%
    18:00 +17°C° 0.1 mm 9 mps 767 mmHg 67%
    19:00 +16°C° 0.1 mm 9 mps 768 mmHg 69%
    20:00 +16°C° 0.1 mm 8 mps 768 mmHg 71%
    21:00 +15°C° 0 mm 8 mps 768 mmHg 70%
    22:00 +15°C° 0 mm 8 mps 768 mmHg 69%
    23:00 +15°C° 0 mm 8 mps 768 mmHg 69%

    28 September, Thursday

    Time Temperature Precipitation Wind Pressure Humidity
    00:00 +15°C° 0 mm 8 mps 768 mmHg 68%
    01:00 +15°C° 0 mm 8 mps 768 mmHg 66%
    02:00 +15°C° 0 mm 8 mps 768 mmHg 65%
    03:00 +15°C° 0 mm 8 mps 768 mmHg 66%
    04:00 +15°C° 0 mm 8 mps 768 mmHg 67%
    05:00 +13°C° 0 mm 9 mps 768 mmHg 68%
    06:00 +15°C° 0.1 mm 9 mps 768 mmHg 67%
    07:00 +16°C° 0.1 mm 9 mps 768 mmHg 65%
    08:00 +16°C° 0.1 mm 10 mps 768 mmHg 64%
    09:00 +16°C° 0.1 mm 10 mps 769 mmHg 64%
    10:00 +17°C° 0.1 mm 10 mps 769 mmHg 64%
    11:00 +17°C° 0.1 mm 10 mps 769 mmHg 64%
    12:00 +17°C° 0.1 mm 10 mps 769 mmHg 63%
    13:00 +17°C° 0.1 mm 10 mps 769 mmHg 61%
    14:00 +17°C° 0.1 mm 9 mps 769 mmHg 60%
    15:00 +17°C° 0.1 mm 9 mps 769 mmHg 61%
    16:00 +17°C° 0.1 mm 9 mps 769 mmHg 62%
    17:00 +16°C° 0.1 mm 9 mps 768 mmHg 62%
    18:00 +16°C° 0.2 mm 9 mps 769 mmHg 65%
    19:00 +15°C° 0.2 mm 9 mps 769 mmHg 68%
    20:00 +13°C° 0.2 mm 9 mps 769 mmHg 71%
    21:00 +13°C° 0.1 mm 9 mps 769 mmHg 70%
    22:00 +13°C° 0.1 mm 9 mps 769 mmHg 69%
    23:00 +13°C° 0.1 mm 9 mps 768 mmHg 68%

    29 September, Friday

    Time Temperature Precipitation Wind Pressure Humidity
    00:00 +13°C° 0.1 mm 9 mps 768 mmHg 66%
    01:00 +13°C° 0.1 mm 9 mps 768 mmHg 64%
    02:00 +13°C° 0.1 mm 9 mps 768 mmHg 63%
    03:00 +13°C° 0.1 mm 9 mps 767 mmHg 63%
    04:00 +12°C° 0.1 mm 9 mps 767 mmHg 63%
    05:00 +12°C° 0.1 mm 9 mps 767 mmHg 63%
    06:00 +13°C° 0.1 mm 9 mps 767 mmHg 63%
    07:00 +13°C° 0.1 mm 9 mps 767 mmHg 62%
    08:00 +15°C° 0.1 mm 9 mps 767 mmHg 61%
    09:00 +15°C° 0.2 mm 9 mps 767 mmHg 61%
    10:00 +15°C° 0.2 mm 9 mps 767 mmHg 60%
    11:00 +16°C° 0.2 mm 9 mps 767 mmHg 59%
    12:00 +16°C° 0.2 mm 9 mps 767 mmHg 59%
    13:00 +16°C° 0.2 mm 10 mps 766 mmHg 58%
    14:00 +16°C° 0.2 mm 10 mps 766 mmHg 58%
    15:00 +16°C° 0.1 mm 10 mps 766 mmHg 57%
    16:00 +16°C° 0.1 mm 10 mps 766 mmHg 56%
    17:00 +16°C° 0.1 mm 10 mps 766 mmHg 56%
    18:00 +15°C° 0.1 mm 9 mps 766 mmHg 59%
    19:00 +13°C° 0.1 mm 9 mps 766 mmHg 62%
    20:00 +12°C° 0.1 mm 8 mps 766 mmHg 65%
    21:00 +12°C° 0 mm 8 mps 765 mmHg 64%
    22:00 +12°C° 0 mm 8 mps 765 mmHg 64%
    23:00 +12°C° 0 mm 8 mps 765 mmHg 63%

    30 September, Saturday

    Time Temperature Precipitation Wind Pressure Humidity
    00:00 +12°C° 0 mm 9 mps 765 mmHg 61%
    01:00 +11°C° 0 mm 9 mps 764 mmHg 59%
    02:00 +11°C° 0 mm 9 mps 764 mmHg 57%
    03:00 +11°C° 0 mm 9 mps 764 mmHg 57%
    04:00 +11°C° 0 mm 9 mps 764 mmHg 57%
    05:00 +10°C° 0 mm 9 mps 764 mmHg 57%
    06:00 +11°C° 0 mm 9 mps 764 mmHg 56%
    07:00 +12°C° 0 mm 9 mps 764 mmHg 54%
    08:00 +12°C° 0 mm 9 mps 764 mmHg 52%
    09:00 +15°C° 0 mm 9 mps 764 mmHg 48%
    10:00 +16°C° 0 mm 9 mps 764 mmHg 45%
    11:00 +17°C° 0 mm 8 mps 764 mmHg 41%
    12:00 +18°C° 0 mm 8 mps 764 mmHg 40%
    13:00 +18°C° 0 mm 8 mps 763 mmHg 38%
    14:00 +18°C° 0 mm 7 mps 763 mmHg 37%
    15:00 +18°C° 0 mm 7 mps 763 mmHg 39%
    16:00 +17°C° 0 mm 6 mps 763 mmHg 40%
    17:00 +17°C° 0 mm 6 mps 763 mmHg 42%
    18:00 +16°C° 0 mm 6 mps 763 mmHg 47%
    19:00 +15°C° 0 mm 5 mps 763 mmHg 51%
    20:00 +14°C° 0 mm 5 mps 763 mmHg 56%
    21:00 +13°C° 0 mm 5 mps 763 mmHg 58%
    22:00 +13°C° 0 mm 4 mps 763 mmHg 59%
    23:00 +13°C° 0 mm 4 mps 763 mmHg 61%
    Show more